Location: Stoke Bliss
(52.2667°N, 2.5167°W)
Time: 16:43:39
(UTC+00:00)

OBJECT-B - Pass Details

Date: 03 March 2021
Orbit: 414 x 427 km, 97.0° (Epoch: 11 April)

Event Time Altitude Azimuth Distance (km) Brightness Sun altitude
Exits shadow 21:11:19 12° 270° (W) 1,376 4.0 -29.9°
Maximum altitude 21:11:21 12° 271° (W) 1,376 4.0 -29.9°
Drops below altitude 10° 21:12:47 10° 298° (WNW) 1,514 4.5 -30.1°
Sets 21:15:47 0° 329° (NNW) 2,383 5.5 -30.5°
